Flag for Netherlands Weather past 2 weeks in Oss, Netherlands

50 °F

Light rain. Partly cloudy.

Feels Like: 43 °F
Forecast: 44 / 54 °F
Wind: 23 mph from Southwest

Location: Volkel

Current Time: Nov 30, 2015 at 6:38:53 PM

Latest Report: Nov 30, 2015 at 5:55 PM

Visibility: 3 mi

Pressure: 29.83 "Hg

Humidity: 100%

Dew point: 50 °F

Location of OssLocation

Historic Weather in Oss — Graph


Oss temperature yesterday

Maximum temperature yesterday: 54 °F (at 2:59 PM)
Minimum temperature yesterday: 45 °F (at 12:55 AM)
Average temperature yesterday: 50 °F

Past Weeks' High & Low Weather Summary

High61 °F (Nov 17, 8:25 PM)100% (Nov 16, 6:00 PM)30.24 "Hg (Nov 16, 6:00 PM)
Low32 °F (Nov 23, 4:25 AM)58% (Nov 18, 7:55 AM)29.36 "Hg (Nov 21, 7:25 AM)
Average45 °F85%29.83 "Hg
* Reported Nov 15 5:25 PM — Nov 30 5:25 PM, Oss, Weather by CustomWeather, © 2015

Note: Actual official high and low records may vary slightly from our data, if they occured in-between our weather recording intervals... More about our weather records


Oss weather history for previous 24 hours

Time TempWeatherWind HumidityBarometerVisibility
5:25 PM
Mon, Nov 30
52 °FLight rain. Partly cloudy.23 mph94%29.83 "Hg2 mi
5:02 PM52 °FLight rain. Overcast.25 mph88%29.83 "Hg4 mi
4:55 PM52 °FLight rain. Partly cloudy.26 mph88%29.83 "HgN/A
4:25 PM52 °FLight rain. More clouds than sun.23 mph88%29.83 "HgN/A
3:55 PM52 °FLight rain. Mostly cloudy.23 mph88%29.86 "HgN/A
3:25 PM52 °FDrizzle. Partly sunny.23 mph88%29.89 "Hg4 mi
2:55 PM52 °FDrizzle. Broken clouds.20 mph94%29.89 "HgN/A
2:25 PM52 °FDrizzle. Broken clouds.20 mph94%29.89 "Hg5 mi
1:55 PM52 °FLight rain. Cloudy.21 mph94%29.92 "Hg5 mi
1:25 PM48 °FLight rain. Broken clouds.12 mph100%29.92 "HgN/A
12:59 PM46 °FSprinkles. Broken clouds.10 mph100%29.95 "Hg4 mi
12:25 PM45 °FLight rain. Mostly cloudy.6 mph93%29.98 "Hg5 mi
12:04 PM45 °FRain showers. Broken clouds.6 mph93%29.98 "Hg4 mi
12:03 PM45 °FDrizzle. Broken clouds.6 mph93%29.98 "Hg4 mi
11:55 AM45 °FLight rain. Broken clouds.6 mph93%30.01 "Hg5 mi
11:25 AM45 °FDrizzle. Mostly cloudy.8 mph87%30.04 "HgN/A
10:55 AM45 °FLight rain. Mostly cloudy.13 mph81%30.04 "HgN/A
10:25 AM46 °FLight rain. Partly sunny.10 mph76%30.04 "HgN/A
9:55 AM45 °FBroken clouds.9 mph76%30.07 "HgN/A
9:25 AM45 °FScattered clouds.8 mph76%30.07 "HgN/A
8:55 AM45 °FPartly sunny.9 mph71%30.07 "HgN/A
8:25 AM45 °FPartly sunny.9 mph66%30.07 "HgN/A
7:55 AM45 °FPartly cloudy.9 mph66%30.07 "HgN/A
7:25 AM46 °FMostly cloudy.9 mph62%30.07 "HgN/A
6:55 AM46 °FOvercast.13 mph62%30.04 "HgN/A
6:25 AM46 °FMostly cloudy.13 mph62%30.04 "HgN/A
5:55 AM46 °FPassing clouds.13 mph62%30.01 "HgN/A
5:25 AM48 °FOvercast.13 mph58%30.01 "HgN/A
4:25 AM48 °FMostly cloudy.12 mph66%29.98 "HgN/A
3:55 AM48 °FOvercast.9 mph71%29.95 "HgN/A
3:25 AM48 °FOvercast.10 mph71%29.95 "HgN/A
2:55 AM48 °FPassing clouds.10 mph71%29.92 "HgN/A
1:55 AM50 °FPassing clouds.16 mph71%29.89 "HgN/A
1:25 AM50 °FCool.17 mph71%29.89 "HgN/A
12:55 AM50 °FPassing clouds.15 mph76%29.86 "HgN/A
11:55 PM
Sun, Nov 29
50 °FPassing clouds.13 mph88%29.83 "HgN/A
11:25 PM50 °FMostly cloudy.13 mph82%29.80 "HgN/A
10:55 PM50 °FRain showers. Partly cloudy.17 mph94%29.80 "Hg4 mi
10:25 PM50 °FLight rain. Partly cloudy.20 mph88%29.77 "HgN/A
10:03 PM50 °FSprinkles. Partly cloudy.25 mph88%29.77 "Hg4 mi
9:25 PM52 °FRain showers. Passing clouds.21 mph94%29.74 "Hg3 mi
8:55 PM52 °FDrizzle. Overcast.28 mph94%29.71 "Hg3 mi
8:25 PM52 °FFog.29 mph94%29.71 "Hg4 mi
8:03 PM52 °FPartly cloudy.29 mph94%29.71 "Hg3 mi
8:02 PM52 °FPartly cloudy.29 mph94%29.71 "Hg2 mi
7:55 PM52 °FPartly cloudy.30 mph94%29.71 "Hg2 mi
7:25 PM54 °FDrizzle. Overcast.24 mph82%29.71 "Hg4 mi
7:01 PM54 °FPartly cloudy.31 mph77%29.71 "HgN/A
6:25 PM54 °FOvercast.29 mph77%29.71 "HgN/A
Weather by CustomWeather, © 2015

See weather overviewHow to use our weather pages